STARLINK-1503 (45745 NORAD) Tracking and Keplerian Element Data

This shows tracking and keplerian element data for the satellite.

Feedback or suggestion? Click here.




ElementValue
Catalog45745
NameSTARLINK-1503
Epoch Orbit427
Epoch Day185.50001157
Epoch Year2020
RAAN198.3521
Inclination53.0009
Eccentricity0.0001312
Argument of Perigee133.2947
Mean Anonmoly216.9902
Mean Motion15.59731589
Decay Rate-0.01186138
L11 45745U 20038R 20185.50001157 -.01186138 00000-0 -16175-1 0 9994
L22 45745 53.0009 198.3521 0001312 133.2947 216.9902 15.59731589 4274

Live tracking and technical data element details for STARLINK-1503 (NORAD 45745). STARLINK-1503 can be tracked NOW for your location showing map with azimuth and elevation plus other details from your city location.

Track the satellite on the map from your city or location and see movement details for azimuth, elevation, latitude, longitude, range, height, and movement on the map or in text.







IsCatalogInMostPopularTable: catalog: 45745, numindb: 4
Update: records affected: 1



GetName: 45745 STARLINK-1503

Hit Count: updated at: Sat, 04 Jul 2020 02:24:20 GMT